Weather History for Akron Canton, OH

Change the Weather History Date:

Friday, March 15, 2013

  Actual Average Record
Temperature  
Mean Temperature 2 °C 3 °C  
Max Temperature 8 °C 8 °C 25 °C (1990)
Min Temperature -4 °C -2 °C -15 °C (1993)
Degree Days  
Heating Degree Days 29 28  
Month to date heating degree days 459 455  
Since 1 July heating degree days 4720 4999  
Cooling Degree Days 0 0  
Month to date cooling degree days 0 0  
Year to date cooling degree days 0 0  
Moisture  
Dew Point -2 °C    
Average Humidity 76    
Maximum Humidity 92    
Minimum Humidity 60    
Precipitation  
Precipitation 1.52 mm 2.29 mm 1.55 mm (2002)
Month to date precipitation 0.94 1.33  
Year to date precipitation 5.13 6.25  
Snow  
Snow T cm 0.76 cm - ()
Month to date snowfall 4.5 4.8  
Since 1 July snowfall 40.9 41.3  
Snow Depth 0.00 cm    
Sea Level Pressure  
Sea Level Pressure 1014 hPa    
Wind  
Wind Speed 15 km/h (West)    
Max Wind Speed 29 km/h    
Max Gust Speed 39 km/h    
Visibility 11 kilometers    
Events Rain    
T = Trace of Precipitation, MM = Missing Value Source: NWS Daily Summary

Daily Weather History Graph

Daily Weather History Graph

Search for Another Location

Airport:

Trip Planner

Search our weather history database for the weather conditions in past years. The results will help you decide how hot, cold, wet, or windy it might be!

Date:

Astronomy

Mar. 15, 2013 Rise Set
Actual Time 7:37 AM EDT 7:32 PM EDT
Civil Twilight 7:09 AM EDT 8:00 PM EDT
Nautical Twilight 6:37 AM EDT 8:32 PM EDT
Astronomical Twilight 6:05 AM EDT 9:04 PM EDT
Moon 9:24 AM EDT (3/15) 11:47 PM EDT (3/15)
Length of Visible Light 12h 50m
Length of Day
11h 55m
Waxing Crescent, 15% of the Moon is Illuminated
Mar 15
Waxing Crescent
Mar 19
First Quarter
Mar 27
Full
Apr 3
Last Quarter
Apr 10
New

Hourly Weather History & Observations

Time (EDT) Temp. Windchill Dew Point Humidity Pressure Visibility Wind Dir Wind Speed Gust Speed Precip Events Conditions
12:51 AM -1.7 °C -4.5 °C -6.7 °C 69% 1020.2 hPa 12.9 km WSW 7.4 km/h / 2.1 m/s - N/A   Scattered Clouds
1:51 AM -2.2 °C -5.7 °C -6.7 °C 72% 1019.7 hPa 12.9 km SW 9.3 km/h / 2.6 m/s - N/A   Clear
2:51 AM -2.8 °C -6.4 °C -6.7 °C 75% 1019.5 hPa 12.9 km WSW 9.3 km/h / 2.6 m/s - N/A   Clear
3:51 AM -2.8 °C -5.8 °C -6.7 °C 75% 1018.3 hPa 12.9 km WSW 7.4 km/h / 2.1 m/s - N/A   Clear
4:51 AM -0.6 °C -4.3 °C -6.1 °C 67% 1017.5 hPa 14.5 km WSW 11.1 km/h / 3.1 m/s - N/A   Scattered Clouds
5:51 AM 0.0 °C -4.4 °C -6.1 °C 64% 1016.9 hPa 14.5 km WSW 14.8 km/h / 4.1 m/s - N/A   Overcast
6:34 AM 0.0 °C -4.0 °C -6.0 °C 64% 1015.5 hPa 14.5 km SW 13.0 km/h / 3.6 m/s - N/A   Overcast
6:51 AM 0.0 °C -4.0 °C -5.6 °C 66% 1016.5 hPa 14.5 km SW 13.0 km/h / 3.6 m/s - N/A   Overcast
7:51 AM -1.1 °C -4.4 °C -5.6 °C 72% 1016.1 hPa 11.3 km WSW 9.3 km/h / 2.6 m/s - N/A   Scattered Clouds
8:23 AM -1.0 °C -5.2 °C -4.0 °C 80% 1014.4 hPa 11.3 km SW 13.0 km/h / 3.6 m/s - N/A   Mostly Cloudy
8:51 AM 0.0 °C -4.4 °C -4.4 °C 73% 1015.5 hPa 11.3 km SW 14.8 km/h / 4.1 m/s - N/A   Mostly Cloudy
9:51 AM 1.7 °C -3.4 °C -3.3 °C 70% 1015.1 hPa 11.3 km WSW 22.2 km/h / 6.2 m/s - N/A   Mostly Cloudy
10:51 AM 2.8 °C -2.6 °C -2.8 °C 67% 1014.9 hPa 9.7 km WSW 27.8 km/h / 7.7 m/s 37.0 km/h / 10.3 m/s N/A   Haze
11:51 AM 3.3 °C -1.5 °C -2.2 °C 68% 1014.2 hPa 12.9 km WSW 24.1 km/h / 6.7 m/s - N/A   Overcast
12:51 PM 5.0 °C 1.3 °C -1.1 °C 65% 1013.4 hPa 16.1 km West 18.5 km/h / 5.1 m/s 33.3 km/h / 9.3 m/s N/A   Overcast
1:51 PM 6.1 °C 2.0 °C -0.6 °C 62% 1012.8 hPa 16.1 km West 24.1 km/h / 6.7 m/s 31.5 km/h / 8.7 m/s N/A   Overcast
2:51 PM 7.2 °C 3.6 °C 0.0 °C 60% 1012.0 hPa 12.9 km West 22.2 km/h / 6.2 m/s 31.5 km/h / 8.7 m/s N/A   Overcast
3:51 PM 7.8 °C 4.8 °C 0.6 °C 61% 1011.3 hPa 11.3 km WNW 18.5 km/h / 5.1 m/s 31.5 km/h / 8.7 m/s N/A   Overcast
4:51 PM 7.2 °C 4.5 °C 0.6 °C 63% 1011.1 hPa 11.3 km WNW 14.8 km/h / 4.1 m/s - N/A   Overcast
5:51 PM 7.2 °C 3.8 °C 0.6 °C 63% 1011.2 hPa 9.7 km WNW 20.4 km/h / 5.7 m/s - N/A   Haze
6:51 PM 6.7 °C 3.4 °C 0.6 °C 65% 1011.2 hPa 9.7 km WNW 18.5 km/h / 5.1 m/s - N/A   Haze
7:51 PM 6.1 °C 3.4 °C 1.1 °C 71% 1011.8 hPa 9.7 km WNW 13.0 km/h / 3.6 m/s - 0.0 mm Rain Light Rain
8:39 PM 5.0 °C 2.8 °C 2.0 °C 81% 1011.1 hPa 6.4 km NW 9.3 km/h / 2.6 m/s - 0.0 mm Rain Light Rain
8:51 PM 5.0 °C 2.8 °C 2.2 °C 82% 1011.9 hPa 6.4 km NW 9.3 km/h / 2.6 m/s - 0.3 mm Rain Light Rain
9:18 PM 3.0 °C -0.7 °C 2.0 °C 93% 1011.1 hPa 4.0 km NNE 14.8 km/h / 4.1 m/s - 0.0 mm Rain Light Rain
9:51 PM 2.8 °C -0.9 °C 1.1 °C 89% 1012.1 hPa 4.0 km NE 14.8 km/h / 4.1 m/s - 0.3 mm Rain Light Rain
10:51 PM 2.2 °C 0.0 °C 1.1 °C 93% 1012.0 hPa 4.0 km NE 7.4 km/h / 2.1 m/s - 0.3 mm Rain Light Rain
11:51 PM 1.7 °C -1.1 °C 0.6 °C 92% 1011.6 hPa 4.0 km ENE 9.3 km/h / 2.6 m/s - 0.3 mm Rain Light Rain